DW8188 Weather Reports


Display with metric or nautical units.
time (UTC)temp
F
wind
direction
speed
MPH
gust
MPH
rain 1hr
in
rain 24hr
in
rain mn
in
humidity
%
barometer
mb
20170626101859 77 113 0.0 4.0 0.00 0.00 0.00 67 1011.7
20170626094859 77 203 0.0 7.0 0.00 0.00 0.00 67 1012.1
20170626093859 78 90 0.0 2.0 0.00 0.00 0.00 65 1011.8
20170626091859 76 158 0.0 0.0 0.00 0.00 0.00 69 1012.0
20170626085859 76 135 0.0 7.0 0.00 0.00 0.00 70 1012.1
20170626084859 76 23 0.0 4.0 0.00 0.00 0.00 69 1012.0
20170626083900 76 158 0.0 4.0 0.00 0.00 0.00 68 1012.0
20170626082859 75 45 4.0 6.0 0.00 0.00 0.00 70 1011.7
20170626081859 76 113 0.0 6.0 0.00 0.00 0.00 69 1012.0
20170626080900 76 113 0.0 1.0 0.00 0.00 0.00 69 1012.1
20170626071859 74 113 0.0 3.0 0.00 0.00 0.00 72 1012.1
20170626064859 73 68 0.0 0.0 0.00 0.00 0.00 73 1012.2
20170626063859 73 45 0.0 0.0 0.00 0.00 0.00 74 1012.1
20170626062859 73 45 0.0 0.0 0.00 0.00 0.00 73 1012.1
20170626061859 74 338 0.0 0.0 0.00 0.00 0.00 73 1012.1
20170626060859 73 68 0.0 0.0 0.00 0.00 0.00 75 1011.8
20170626055859 71 113 0.0 0.0 0.00 0.00 0.00 77 1011.8
20170626054859 71 45 0.0 0.0 0.00 0.00 0.00 77 1011.8
20170626053859 71 23 0.0 0.0 0.00 0.00 0.00 77 1012.0
20170626052859 71 45 0.0 0.0 0.00 0.00 0.00 77 1011.8
20170626045859 70 315 0.0 0.0 0.00 0.00 0.00 81 1011.6
20170626043859 70 270 0.0 0.0 0.00 0.00 0.00 80 1011.7
20170626042859 69 338 0.0 0.0 0.00 0.00 0.00 81 1011.7
20170626041859 69 293 0.0 0.0 0.00 0.00 0.00 81 1011.7
20170626040859 69 293 0.0 0.0 0.00 0.00 0.00 81 1011.7
20170626035859 69 45 0.0 0.0 0.00 0.00 0.00 81 1011.6
20170626033859 69 90 0.0 0.0 0.00 0.00 0.00 80 1011.4
20170626032859 69 0 0.0 0.0 0.00 0.00 0.00 79 1011.4
20170626031859 69 0 0.0 0.0 0.00 0.00 0.00 79 1011.2
20170626024859 69 338 0.0 0.0 0.00 0.00 0.00 80 1010.9
20170626023859 69 23 0.0 0.0 0.00 0.00 0.00 81 1010.8
20170626022859 69 0 0.0 0.0 0.00 0.00 0.00 80 1010.6
20170626021859 70 135 0.0 0.0 0.00 0.00 0.00 81 1010.7
20170626015859 70 113 0.0 0.0 0.00 0.00 0.00 78 1010.7
20170626014859 71 248 0.0 0.0 0.00 0.00 0.00 77 1010.7
20170626013859 72 248 0.0 0.0 0.00 0.00 0.00 76 1010.7
20170626012859 72 225 0.0 0.0 0.00 0.00 0.00 77 1010.6
20170626011859 71 248 0.0 0.0 0.00 0.00 0.00 79 1010.7
20170626010859 70 248 0.0 0.0 0.00 0.00 0.00 80 1010.9
20170626004859 71 293 0.0 0.0 0.00 0.00 0.00 78 1010.9
20170626003859 72 338 0.0 0.0 0.00 0.00 0.00 76 1010.8
20170626001859 73 338 0.0 0.0 0.00 0.00 0.00 74 1010.8
20170626000859 72 315 0.0 0.0 0.00 0.00 0.00 76 1010.9
20170625235859 72 45 0.0 0.0 0.00 0.00 0.00 75 1011.0
20170625234859 72 45 0.0 0.0 0.00 0.00 0.00 77 1010.8
20170625233859 72 0 0.0 0.0 0.00 0.00 0.00 78 1010.8
20170625232859 72 180 0.0 0.0 0.00 0.00 0.00 77 1010.9
20170625231859 73 23 0.0 0.0 0.00 0.00 0.00 76 1010.7
20170625230900 74 0 0.0 0.0 0.00 0.00 0.00 74 1010.6
20170625224859 73 293 0.0 0.0 0.00 0.00 0.00 77 1010.7
20170625223859 72 293 0.0 0.0 0.00 0.00 0.00 79 1010.6
20170625222859 72 315 0.0 0.0 0.00 0.00 0.00 79 1010.6
20170625220859 72 338 0.0 0.0 0.00 0.00 0.00 77 1010.5
20170625215859 73 315 0.0 0.0 0.00 0.00 0.26 75 1010.5
20170625214859 73 293 0.0 0.0 0.00 0.00 0.26 75 1010.5
20170625212859 73 293 0.0 0.0 0.00 0.00 0.26 74 1010.6
20170625211859 73 293 0.0 0.0 0.00 0.00 0.26 74 1010.4
20170625210859 74 293 0.0 0.0 0.00 0.00 0.26 72 1010.2
20170625205859 74 293 0.0 0.0 0.00 0.00 0.26 72 1010.2
20170625204859 75 293 0.0 0.0 0.00 0.00 0.26 70 1010.1
20170625202859 75 293 0.0 0.0 0.00 0.00 0.26 69 1009.8
20170625195859 75 293 0.0 0.0 0.00 0.00 0.26 69 1009.3
20170625192825 76 338 0.0 0.0 0.00 0.00 0.26 67 1008.9
20170625190826 76 293 0.0 0.0 0.00 0.00 0.26 65 1008.8
20170625185825 77 293 0.0 0.0 0.00 0.00 0.26 65 1008.7
20170625184825 77 293 0.0 0.0 0.00 0.00 0.26 65 1008.7
20170625183825 77 293 0.0 0.0 0.00 0.00 0.26 65 1008.6
20170625181825 77 293 0.0 0.0 0.00 0.00 0.26 65 1008.3
20170625180825 77 293 0.0 0.0 0.00 0.00 0.26 64 1008.4
20170625175825 78 293 0.0 0.0 0.00 0.00 0.26 63 1008.1
20170625174825 78 315 0.0 0.0 0.00 0.00 0.26 62 1008.1
20170625173825 79 293 0.0 0.0 0.00 0.00 0.26 61 1008.1
20170625172825 80 315 0.0 0.0 0.00 0.00 0.26 59 1008.0
20170625170825 83 68 0.0 2.0 0.00 0.00 0.26 55 1008.0
20170625165825 84 23 0.0 4.0 0.00 0.00 0.26 55 1007.9
20170625164825 84 0 0.0 0.0 0.00 0.00 0.26 54 1008.0
20170625163825 84 45 1.0 6.0 0.00 0.00 0.26 55 1007.9
20170625160825 85 23 0.0 0.0 0.00 0.00 0.26 54 1007.8
20170625155825 84 0 0.0 5.0 0.00 0.00 0.26 53 1007.9
20170625154825 84 45 0.0 4.0 0.00 0.00 0.26 53 1008.0
20170625151825 84 180 0.0 1.0 0.00 0.00 0.26 54 1008.1
20170625150825 84 113 0.0 5.0 0.00 0.00 0.26 53 1008.1
20170625144825 84 113 1.0 5.0 0.00 0.00 0.26 53 1008.1
20170625141827 83 248 0.0 0.0 0.00 0.00 0.26 54 1008.4
20170625140825 83 135 0.0 7.0 0.00 0.00 0.26 54 1008.6
20170625135825 83 113 4.0 7.0 0.00 0.00 0.26 54 1008.7
20170625134825 83 0 0.0 3.0 0.00 0.00 0.26 55 1008.7
20170625133825 83 90 0.0 5.0 0.00 0.00 0.26 56 1008.6
20170625132825 82 113 2.0 4.0 0.00 0.00 0.26 56 1008.8
20170625130825 83 90 3.0 7.0 0.00 0.00 0.26 56 1009.0
20170625124825 82 113 0.0 6.0 0.00 0.00 0.26 56 1009.0
20170625122825 82 113 5.0 7.0 0.00 0.00 0.26 56 1009.1
20170625120825 81 113 0.0 4.0 0.00 0.00 0.26 57 1009.1
20170625113825 81 225 0.0 3.0 0.00 0.00 0.26 58 1009.4
20170625112825 80 158 0.0 5.0 0.00 0.00 0.26 59 1009.5
20170625111825 81 135 0.0 4.0 0.00 0.00 0.26 59 1009.7
20170625104825 80 158 0.0 0.0 0.00 0.00 0.26 62 1009.8
20170625103825 80 180 2.0 4.0 0.00 0.00 0.26 61 1009.9
20170625102825 79 180 0.0 6.0 0.00 0.00 0.26 62 1010.0